Location: Albuquerque Trailhead
(34.7934°N, 106.3736°W)
Time: 00:46:40
(UTC+00:00)

Cosmos 1741 Rocket - Pass Details

Date: 20 June 2021
Orbit: 761 x 783 km, 74.0° (Epoch: 01 August)

Event Time Altitude Azimuth Distance (km) Brightness Sun altitude
Rises 04:14:13 0° 341° (NNW) 3,246 8.5 -18.8°
Reaches altitude 10° 04:16:36 10° 340° (NNW) 2,319 7.5 -19.1°
Maximum altitude 04:21:52 79° 255° (WSW) 793 4.0 -19.8°
Enters shadow 04:24:07 35° 173° (S) 1,229 4.6 -20.1°
